Theta_e
316 317 319 324 317 314 317 316 315 316 316 317 317 316 315 318 318 317 322 323 326 319 315 314 317 318 324 329 329 329 328 332 333 333 334 333 331 325 324 325 326 330 333 330 326 325 324 324 326
316 318 322 324 319 315 312 314 317 313 315 317 317 318 317 316 320 322 322 322 323 324 321 317 317 315 320 329 332 332 333 334 333 335 333 328 324 323 324 324 323 322 321 320 322 323 322 322 322
317 319 322 315 313 314 315 314 314 315 316 317 316 317 318 318 319 321 321 321 320 322 322 318 316 313 317 331 332 330 333 333 334 329 322 320 319 316 315 317 320 321 321 321 321 319 318 318 318
317 320 318 317 318 317 315 315 312 315 316 316 315 314 316 319 319 319 320 321 321 321 320 318 314 312 314 323 328 329 331 330 317 315 315 314 313 312 312 312 313 313 314 314 314 314 313 312 312
318 319 312 315 314 313 311 315 313 313 314 315 315 314 315 316 317 318 317 318 320 319 320 318 315 313 314 316 317 319 319 320 319 315 312 311 310 309 308 307 307 307 307 306 306 305 305 304 304
317 316 314 313 313 313 312 316 314 313 314 314 314 314 316 316 316 316 317 317 316 317 319 320 316 314 314 314 314 314 314 313 313 312 309 307 306 304 303 303 303 303 303 303 303 303 303 303 303
317 313 315 313 313 314 315 313 313 314 314 314 315 314 316 316 316 316 316 317 316 316 318 320 318 315 314 314 314 313 312 311 310 308 307 305 304 304 304 304 303 303 303 302 302 303 303 304 304
319 313 315 312 313 315 315 314 314 314 314 315 315 313 315 317 317 316 316 316 316 316 316 318 319 315 313 313 312 312 310 309 308 307 306 303 304 304 304 304 303 303 303 303 304 304 305 305 305
317 310 310 313 312 314 315 314 316 316 315 314 316 317 317 317 317 316 316 316 316 316 315 315 318 316 314 313 312 311 309 308 307 307 304 304 304 305 304 303 303 303 304 304 304 304 304 305 305
316 308 310 309 310 314 315 314 317 315 316 313 316 317 317 317 316 316 316 316 316 316 316 315 315 317 315 313 313 311 309 308 308 307 304 304 305 305 305 304 303 303 303 303 303 303 304 304 304
314 313 310 314 315 316 315 314 317 313 312 316 316 316 316 316 316 316 316 316 316 316 316 316 315 316 316 314 313 312 309 308 308 307 304 304 305 306 306 304 303 303 303 303 303 303 303 304 304
316 315 315 315 317 316 315 316 313 314 318 317 317 317 316 316 316 316 316 316 316 316 316 316 315 315 316 315 314 313 311 308 308 307 304 304 304 305 306 304 303 303 302 302 303 303 303 303 303
314 314 317 318 316 317 317 315 313 315 317 317 317 316 316 316 316 316 315 315 315 315 315 315 315 315 315 315 315 313 312 309 307 307 306 303 303 304 305 305 304 303 303 303 303 304 304 304 303
313 314 313 314 315 315 314 314 314 315 316 316 315 316 316 316 317 316 316 317 316 315 315 315 315 315 314 314 315 315 313 311 308 307 307 304 303 304 304 304 303 302 302 303 303 303 303 303 303
314 312 309 309 312 310 313 312 309 316 315 315 315 316 317 317 316 317 317 316 316 316 315 315 315 314 314 314 314 314 314 312 309 307 307 305 302 303 304 303 303 301 301 302 302 303 303 303 303
311 310 311 310 309 311 312 310 310 314 314 314 316 316 316 316 316 316 316 316 316 316 316 316 315 315 314 314 314 313 313 313 311 307 306 305 303 302 303 303 301 300 301 301 301 302 302 302 302
307 309 308 308 309 309 308 309 309 314 313 314 315 315 315 315 315 315 315 315 315 315 315 316 315 315 314 314 313 313 312 312 311 308 306 305 303 302 302 302 301 300 300 300 301 301 302 302 302
309 307 307 307 309 307 309 309 309 313 312 310 311 313 313 314 315 315 315 314 314 314 314 314 315 314 314 314 313 312 311 310 309 307 305 304 304 303 302 301 300 299 298 299 300 300 301 301 301
308 307 306 307 308 308 310 310 309 310 310 311 311 311 312 312 315 315 315 315 314 314 314 314 314 315 314 314 314 312 311 310 308 308 306 304 304 303 302 301 299 299 298 298 299 300 300 300 300
308 308 309 309 309 307 308 309 309 309 310 311 311 312 311 313 314 315 315 315 315 315 314 314 314 314 315 314 314 312 312 311 309 308 306 305 303 303 302 300 299 299 298 298 298 299 299 299 299
307 308 310 309 308 306 305 310 307 308 308 310 311 313 311 313 314 315 314 313 313 314 314 314 314 314 314 313 312 311 310 309 308 306 305 304 303 303 302 300 299 298 297 297 298 298 299 299 298
310 307 308 309 308 310 307 311 308 308 308 307 309 311 314 315 313 314 314 315 314 314 315 314 313 313 313 313 312 312 312 312 312 310 308 306 305 304 302 300 299 298 297 296 297 297 298 298 298
310 309 307 307 307 307 308 307 311 307 309 308 307 312 311 314 314 314 315 315 315 315 315 314 313 312 312 312 313 312 311 310 310 309 308 306 305 303 302 300 298 297 297 296 296 296 297 297 297
307 308 306 305 306 309 309 308 314 308 309 310 309 314 313 314 313 314 314 314 313 313 314 315 313 313 312 311 310 310 310 310 310 308 308 306 304 303 302 300 299 298 297 296 295 296 296 296 296
308 307 308 308 308 311 307 307 312 310 310 308 307 311 312 313 313 312 313 314 313 312 311 312 312 312 312 311 310 309 309 309 309 309 308 308 305 303 303 302 300 299 297 296 295 295 296 296 296
305 308 309 312 309 314 303 309 315 311 309 311 310 310 310 312 313 313 313 312 312 311 310 311 311 311 311 311 310 309 308 308 307 308 308 307 307 306 304 302 300 299 297 296 295 294 295 295 295
306 308 308 310 310 309 312 309 309 310 307 307 308 309 310 312 312 313 313 313 312 311 310 311 311 311 311 310 309 309 310 309 308 308 307 306 305 305 304 303 301 299 298 296 295 294 294 294 294
306 306 309 307 312 313 310 311 312 312 312 308 306 306 311 312 309 308 310 312 310 308 307 307 308 309 310 310 310 310 309 309 309 307 307 307 306 305 304 303 302 300 297 296 295 294 293 294 294
309 307 306 307 310 315 316 314 310 312 311 307 305 311 307 304 305 306 306 306 306 306 306 305 305 305 305 305 305 306 307 308 307 307 307 306 305 305 304 303 302 301 299 296 295 294 293 293 293
307 311 310 313 313 310 312 313 310 309 310 306 301 300 301 302 301 302 303 302 304 305 306 305 305 305 306 306 306 306 305 306 306 305 306 306 306 305 304 303 301 301 300 297 296 295 293 293 293
Wind_Speed
5 3 3 2 4 5 4 6 2 3 2 2 7 5 7 4 6 5 2 6 10 17 20 21 20 20 21 20 17 16 15 13 13 11 12 10 11 13 13 11 11 10 7 8 6 4 5 5 5
5 3 1 2 4 2 5 4 6 6 2 3 5 4 2 7 12 6 5 8 10 14 17 18 19 19 18 18 17 16 15 16 15 15 14 12 12 11 11 11 11 11 9 8 6 6 6 6 6
4 3 1 4 3 4 5 5 5 2 5 4 2 5 3 4 7 8 7 11 11 12 16 18 19 19 19 17 17 16 17 18 17 17 14 14 14 12 10 10 10 11 11 10 9 9 9 10 10
3 2 3 3 6 7 7 5 4 2 3 8 4 6 6 10 4 6 10 11 13 13 15 19 20 21 21 22 19 20 21 20 17 13 12 13 13 12 10 9 11 11 10 10 9 9 10 10 10
2 1 2 2 5 6 6 11 8 3 2 3 5 5 6 9 13 12 7 11 14 14 16 19 21 22 22 22 21 21 21 21 20 15 14 13 11 10 10 10 10 9 9 9 8 8 7 7 7
1 2 3 3 5 6 7 9 3 4 5 3 4 8 8 11 11 13 11 11 13 14 17 20 22 23 23 22 22 22 20 21 19 16 14 12 11 10 9 9 8 8 7 6 5 4 3 3 4
3 3 3 3 5 7 4 1 3 3 3 7 5 2 6 8 8 10 11 13 14 16 18 19 23 24 24 23 24 22 22 21 19 17 15 12 10 9 8 7 6 6 5 4 4 3 2 2 3
2 4 1 4 2 6 3 2 4 5 5 7 5 6 6 4 5 10 14 16 17 18 20 21 24 25 25 25 24 24 23 22 20 18 16 14 11 10 9 9 8 7 7 5 3 3 3 4 5
3 3 3 5 5 5 2 1 4 5 9 7 9 19 21 20 17 15 17 20 21 22 22 23 25 27 27 27 26 25 25 23 21 20 18 16 13 12 10 10 8 8 7 5 4 4 5 6 7
4 4 7 6 5 5 5 5 14 4 11 12 20 26 26 27 26 24 24 24 25 25 24 25 26 29 30 30 29 28 28 26 24 22 19 18 16 14 13 12 11 9 8 6 6 6 6 6 7
6 6 5 8 17 13 7 7 12 4 8 27 21 24 20 23 27 29 30 30 29 26 28 28 29 30 32 33 32 31 31 29 27 25 23 22 20 18 16 14 12 11 9 8 7 7 7 8 9
3 13 13 7 9 6 6 14 8 12 35 34 34 32 33 31 31 32 34 32 32 31 30 31 31 32 34 35 36 34 34 32 30 28 28 26 24 22 19 17 15 12 11 9 9 8 8 9 11
5 6 16 24 22 23 23 27 13 22 46 41 39 33 31 29 30 29 30 32 34 35 34 33 33 34 36 37 38 37 37 36 33 32 31 29 27 24 22 19 17 15 12 11 11 10 11 12 13
3 8 13 15 20 21 11 27 3 31 36 35 33 33 28 26 27 27 28 31 34 34 36 34 35 36 37 38 39 39 39 38 37 35 33 32 29 27 25 22 20 18 16 14 12 11 10 11 12
6 7 9 7 13 7 11 10 10 35 31 31 36 31 29 28 28 31 32 34 34 35 34 36 36 37 38 39 40 41 41 40 40 38 36 35 32 30 28 26 24 21 19 16 14 12 11 11 12
3 1 5 2 5 4 11 10 21 26 21 27 26 25 32 37 41 44 41 42 41 39 38 36 38 39 39 41 41 43 42 42 42 41 39 38 35 33 31 29 26 23 20 18 16 14 12 12 12
3 6 8 10 12 6 8 10 13 21 15 19 29 44 46 51 50 50 47 45 44 43 41 39 38 39 39 41 43 44 43 43 44 42 42 40 37 35 34 31 29 26 24 22 19 17 15 12 13
9 6 6 7 7 7 6 16 14 34 34 33 37 46 51 53 55 50 47 43 39 34 35 38 38 38 37 40 44 45 45 45 45 44 44 41 40 38 37 35 32 30 28 25 21 20 16 13 12
2 6 11 8 9 4 20 22 18 25 26 36 38 36 45 47 50 45 40 38 36 32 30 31 34 36 40 42 44 47 47 47 47 46 44 43 42 41 40 38 35 33 30 26 24 23 19 15 13
5 11 18 14 14 5 13 21 17 20 25 32 39 41 36 43 45 45 41 33 30 27 25 23 27 34 39 43 45 46 44 46 47 46 46 46 45 43 42 40 38 35 32 31 29 26 22 19 15
4 7 17 14 7 5 10 14 8 9 13 27 37 44 36 39 40 33 36 35 27 23 22 22 24 29 36 41 44 45 45 46 48 49 49 48 46 45 45 41 39 36 34 33 30 28 25 22 17
15 11 13 11 6 7 5 15 7 8 10 8 27 25 29 23 26 30 34 32 33 25 17 20 25 32 35 37 40 45 48 49 49 48 47 48 48 48 46 43 40 38 36 34 32 30 27 25 20
11 4 7 3 4 5 1 3 2 4 6 11 9 11 15 21 20 25 28 33 29 25 21 21 23 28 33 37 38 41 44 47 46 45 46 47 48 48 47 44 42 40 38 36 35 34 31 27 24
2 2 4 4 2 6 9 8 20 3 4 3 9 30 22 19 27 28 30 33 27 18 19 22 22 24 29 33 36 38 42 45 45 44 42 46 48 48 47 45 43 42 41 40 38 35 32 29 26
3 4 3 3 1 9 3 3 15 9 15 8 10 19 8 18 29 37 38 36 30 19 16 19 21 22 23 26 30 34 37 39 41 40 41 42 45 48 48 48 48 46 43 41 39 37 35 33 29
8 9 6 7 5 12 4 7 18 5 9 27 20 16 5 20 27 36 38 36 29 21 14 13 14 15 19 21 26 29 33 38 39 40 40 41 41 42 45 48 48 45 43 41 40 39 37 34 32
4 5 3 2 2 2 12 14 14 14 6 4 2 4 13 22 23 30 31 34 24 20 14 11 9 10 13 17 23 25 27 34 39 38 38 39 39 40 41 44 46 46 45 44 43 42 40 38 35
7 3 2 1 3 6 7 13 12 22 24 7 8 13 32 34 30 27 26 21 21 23 24 20 16 17 18 18 20 24 28 31 34 37 40 39 39 41 41 40 42 46 47 46 45 45 42 41 38
2 4 3 2 5 10 16 12 10 21 22 8 10 27 28 30 30 29 25 20 19 20 20 22 21 23 28 29 29 29 31 35 37 39 40 41 42 42 43 42 41 43 47 48 48 47 44 43 41
5 11 9 11 9 10 13 12 14 16 22 25 25 27 30 29 32 30 26 27 27 25 26 29 27 22 20 23 27 29 34 37 40 44 45 45 46 45 43 43 43 43 44 48 50 49 48 47 46
Wind_Direction
232 247 281 311 45 59 271 265 271 262 252 197 142 164 196 191 170 212 268 181 184 191 194 195 195 198 199 201 208 210 211 206 205 199 204 204 210 216 219 214 209 199 197 211 229 235 245 265 269
236 249 275 93 93 50 267 251 239 233 257 202 188 196 229 250 230 265 210 192 182 189 198 199 198 199 196 199 204 203 200 202 204 198 199 210 222 226 226 221 220 224 242 257 268 266 269 267 264
230 224 228 97 117 192 226 222 244 266 243 199 247 243 248 233 233 227 223 203 198 198 201 202 201 202 200 196 198 196 204 205 203 214 230 237 241 249 243 236 233 236 242 245 251 261 270 272 276
208 174 56 103 225 249 219 250 233 283 237 224 237 277 252 243 255 229 227 217 214 212 210 205 202 205 206 204 204 201 205 214 236 242 240 241 238 241 241 236 236 240 243 249 254 260 265 269 274
202 40 54 310 260 265 254 265 261 213 248 208 202 261 253 260 248 249 244 228 225 223 216 212 209 210 211 212 215 217 220 228 240 244 236 232 230 227 225 225 231 239 244 249 252 256 259 266 271
91 67 36 261 264 273 278 263 242 216 239 242 225 255 257 267 262 248 240 225 227 229 225 220 215 216 216 218 220 223 227 233 239 240 235 228 225 223 224 226 227 228 228 226 228 225 234 254 269
114 89 230 253 265 304 261 309 211 227 245 260 233 244 275 291 268 250 234 227 225 227 227 227 224 221 220 220 225 227 230 229 228 230 231 229 223 221 225 226 226 224 218 208 202 209 229 271 306
149 99 271 249 262 273 315 244 282 228 265 250 219 242 268 288 288 245 233 228 228 230 230 229 226 225 224 224 225 225 228 225 225 226 225 219 216 221 222 222 221 222 227 232 248 285 311 325 329
161 65 242 252 184 249 252 260 274 263 267 245 228 250 273 279 279 261 237 229 229 230 230 229 227 227 226 226 227 227 227 226 226 225 221 217 219 224 220 221 219 223 230 242 264 284 306 321 328
151 145 228 215 209 244 285 247 288 266 271 263 259 268 276 276 273 268 261 254 242 239 238 232 228 227 226 227 228 229 229 227 228 227 224 219 221 221 220 220 218 224 234 247 262 282 302 311 324
184 210 216 244 247 267 281 278 274 196 276 268 261 294 290 280 278 270 266 264 266 264 244 242 235 230 228 229 229 230 230 230 230 227 224 222 224 226 222 222 221 226 238 254 269 279 290 304 320
233 243 240 256 256 277 265 289 262 223 270 287 287 291 286 280 277 277 272 270 269 263 257 245 240 236 232 230 231 233 232 231 230 229 226 224 225 225 223 222 225 232 239 249 262 277 296 312 322
219 244 254 263 272 273 279 270 252 261 283 289 289 290 287 282 281 280 280 273 265 262 258 253 245 242 238 234 233 232 233 232 231 229 229 227 225 226 225 225 228 233 242 252 263 280 297 308 318
283 266 274 283 274 265 227 270 200 269 280 286 288 292 290 285 289 285 279 282 274 270 264 254 249 245 241 239 238 236 235 233 231 232 232 230 227 227 227 228 228 229 234 242 255 270 284 300 313
285 311 311 227 263 233 220 295 231 274 285 286 286 285 289 289 293 289 291 288 287 282 272 263 252 246 244 241 239 237 237 234 233 233 232 230 228 227 228 228 227 227 229 236 243 259 277 295 309
304 184 305 8 131 263 162 256 272 289 275 277 284 286 289 288 287 288 285 283 283 281 277 269 256 249 244 243 241 240 238 235 234 233 231 230 228 228 229 229 227 228 231 235 240 251 266 285 303
335 250 224 300 218 190 186 253 256 280 293 264 273 285 288 288 288 285 285 285 285 284 277 269 260 251 245 242 241 241 239 236 235 231 231 229 228 229 230 231 229 229 230 231 236 241 254 274 296
234 235 254 244 278 181 225 251 275 279 288 274 274 281 284 285 286 292 294 295 293 290 279 267 260 252 244 240 240 238 237 235 234 231 231 230 230 229 230 230 229 229 228 230 234 239 250 264 284
172 239 252 262 264 300 278 276 270 272 271 278 280 273 278 280 295 298 298 298 298 294 286 269 258 249 240 236 235 234 234 233 232 231 230 230 230 230 230 230 228 228 229 233 233 237 243 255 272
251 269 272 277 264 250 273 273 278 265 257 256 269 278 276 287 296 301 303 305 308 308 296 273 258 251 247 242 237 234 233 234 234 232 228 228 228 229 230 229 229 229 228 228 231 235 238 247 255
211 235 265 267 303 253 299 281 233 272 253 258 261 268 278 284 291 309 313 315 314 315 301 281 263 252 247 243 236 233 231 232 230 228 227 227 227 228 229 229 229 229 229 231 233 234 236 241 244
264 225 256 272 348 282 4 298 177 230 262 273 269 280 288 302 314 326 321 322 321 315 304 284 260 251 244 240 237 234 235 233 234 234 231 228 227 227 228 227 228 229 230 230 232 233 234 239 242
241 178 240 194 205 317 244 271 106 105 223 267 290 283 320 354 351 338 332 326 313 300 304 285 263 251 246 241 236 234 234 236 238 236 233 230 228 227 227 227 226 227 229 230 231 231 233 235 241
102 99 58 48 96 280 188 180 295 159 240 250 317 311 331 355 1 358 347 337 328 289 284 281 263 248 243 242 240 237 235 234 234 235 235 233 230 229 228 227 228 229 229 229 230 230 232 236 237
144 87 311 326 42 233 81 162 251 288 280 269 280 287 299 5 7 9 360 347 336 317 284 276 259 249 249 245 244 242 241 239 238 238 238 235 233 231 230 229 227 227 228 228 229 230 232 234 236
184 171 176 218 253 282 98 244 269 239 285 283 282 279 300 3 5 1 2 356 351 338 325 299 275 263 253 249 249 245 243 241 240 241 241 240 239 237 235 233 232 231 230 229 229 230 232 232 234
180 178 241 320 271 259 267 273 299 294 303 345 318 311 344 344 343 351 349 346 2 11 2 346 323 307 291 275 261 252 251 249 245 244 246 246 246 241 239 236 235 234 230 229 230 230 230 231 233
179 192 216 341 243 243 232 260 267 290 291 300 303 325 337 333 345 357 354 348 347 6 0 352 344 333 315 296 283 270 261 257 255 250 248 248 246 243 241 237 235 235 233 231 229 229 228 229 231
189 232 216 201 202 254 266 258 262 274 296 343 352 347 8 12 12 11 12 11 6 5 359 349 340 331 323 310 295 283 275 269 264 258 254 251 249 246 242 239 235 233 233 232 231 230 229 229 231
189 250 243 241 249 244 264 263 296 315 313 26 41 22 11 10 5 6 5 4 6 4 0 4 1 351 326 303 297 297 290 281 276 269 262 256 251 249 246 244 240 235 232 232 232 232 230 230 229